#datetime,building,power
2022-06-17T00:00:00,thc,7.09
2022-06-17T00:01:00,thc,7.07
2022-06-17T00:02:00,thc,7.08
2022-06-17T00:03:00,thc,6.98
2022-06-17T00:04:00,thc,6.98
2022-06-17T00:05:00,thc,6.98
2022-06-17T00:06:00,thc,6.97
2022-06-17T00:07:00,thc,6.99
2022-06-17T00:08:00,thc,6.96
2022-06-17T00:09:00,thc,6.97
2022-06-17T00:10:00,thc,6.86
2022-06-17T00:11:00,thc,6.86
2022-06-17T00:12:00,thc,6.86
2022-06-17T00:13:00,thc,6.87
2022-06-17T00:14:00,thc,6.88
2022-06-17T00:15:00,thc,6.88
2022-06-17T00:16:00,thc,7.09
2022-06-17T00:17:00,thc,7.08
2022-06-17T00:18:00,thc,6.87
2022-06-17T00:19:00,thc,6.86
2022-06-17T00:20:00,thc,6.86
2022-06-17T00:21:00,thc,7.01
2022-06-17T00:22:00,thc,6.98
2022-06-17T00:23:00,thc,7.00
2022-06-17T00:24:00,thc,6.99
2022-06-17T00:25:00,thc,7.00
2022-06-17T00:26:00,thc,6.97
2022-06-17T00:27:00,thc,6.98
2022-06-17T00:28:00,thc,6.98
2022-06-17T00:29:00,thc,6.98
2022-06-17T00:30:00,thc,6.97
2022-06-17T00:31:00,thc,7.01
2022-06-17T00:32:00,thc,6.99
2022-06-17T00:33:00,thc,6.99
2022-06-17T00:34:00,thc,7.01
2022-06-17T00:35:00,thc,7.11
2022-06-17T00:36:00,thc,7.12
2022-06-17T00:37:00,thc,7.11
2022-06-17T00:38:00,thc,7.12
2022-06-17T00:39:00,thc,7.35
2022-06-17T00:40:00,thc,7.10
2022-06-17T00:41:00,thc,7.15
2022-06-17T00:42:00,thc,7.11
2022-06-17T00:43:00,thc,7.09
2022-06-17T00:44:00,thc,7.11
2022-06-17T00:45:00,thc,7.09
2022-06-17T00:46:00,thc,7.12
2022-06-17T00:47:00,thc,7.10
2022-06-17T00:48:00,thc,7.10
2022-06-17T00:49:00,thc,7.10
2022-06-17T00:50:00,thc,7.10
2022-06-17T00:51:00,thc,7.10
2022-06-17T00:52:00,thc,7.10
2022-06-17T00:53:00,thc,7.09
2022-06-17T00:54:00,thc,7.25
2022-06-17T00:55:00,thc,7.22
2022-06-17T00:56:00,thc,7.19
2022-06-17T00:57:00,thc,11.67
2022-06-17T00:58:00,thc,13.33
2022-06-17T00:59:00,thc,13.35
2022-06-17T01:00:00,thc,13.27
2022-06-17T01:01:00,thc,13.30
2022-06-17T01:02:00,thc,9.23
2022-06-17T01:03:00,thc,7.21
2022-06-17T01:04:00,thc,7.21
2022-06-17T01:05:00,thc,7.22
2022-06-17T01:06:00,thc,7.21
2022-06-17T01:07:00,thc,7.22
2022-06-17T01:08:00,thc,7.21
2022-06-17T01:09:00,thc,7.20
2022-06-17T01:10:00,thc,7.24
2022-06-17T01:11:00,thc,9.58
2022-06-17T01:12:00,thc,9.64
2022-06-17T01:13:00,thc,9.58
2022-06-17T01:14:00,thc,9.55
2022-06-17T01:15:00,thc,7.00
2022-06-17T01:16:00,thc,6.99
2022-06-17T01:17:00,thc,6.99
2022-06-17T01:18:00,thc,6.99
2022-06-17T01:19:00,thc,6.98
2022-06-17T01:20:00,thc,7.20
2022-06-17T01:21:00,thc,6.98
2022-06-17T01:22:00,thc,6.97
2022-06-17T01:23:00,thc,6.97
2022-06-17T01:24:00,thc,6.98
2022-06-17T01:25:00,thc,7.01
2022-06-17T01:26:00,thc,6.88
2022-06-17T01:27:00,thc,6.87
2022-06-17T01:28:00,thc,8.98
2022-06-17T01:29:00,thc,9.02
2022-06-17T01:30:00,thc,9.03
2022-06-17T01:31:00,thc,9.01
2022-06-17T01:32:00,thc,8.98
2022-06-17T01:33:00,thc,7.00
2022-06-17T01:34:00,thc,6.99
2022-06-17T01:35:00,thc,6.98
2022-06-17T01:36:00,thc,7.01
2022-06-17T01:37:00,thc,7.19
2022-06-17T01:38:00,thc,7.20
2022-06-17T01:39:00,thc,7.06
2022-06-17T01:40:00,thc,6.98
2022-06-17T01:41:00,thc,7.00
2022-06-17T01:42:00,thc,6.98
2022-06-17T01:43:00,thc,6.98
2022-06-17T01:44:00,thc,6.99
2022-06-17T01:45:00,thc,6.98
2022-06-17T01:46:00,thc,6.97
2022-06-17T01:47:00,thc,6.98
2022-06-17T01:48:00,thc,6.97
2022-06-17T01:49:00,thc,6.98
2022-06-17T01:50:00,thc,6.97
2022-06-17T01:51:00,thc,6.96
2022-06-17T01:52:00,thc,6.97
2022-06-17T01:53:00,thc,6.96
2022-06-17T01:54:00,thc,6.96
2022-06-17T01:55:00,thc,6.94
2022-06-17T01:56:00,thc,6.95
2022-06-17T01:57:00,thc,6.95
2022-06-17T01:58:00,thc,6.95
2022-06-17T01:59:00,thc,7.22
2022-06-17T02:00:00,thc,7.20
2022-06-17T02:01:00,thc,7.18
2022-06-17T02:02:00,thc,7.19
2022-06-17T02:03:00,thc,7.39
2022-06-17T02:04:00,thc,7.07
2022-06-17T02:05:00,thc,7.08
2022-06-17T02:06:00,thc,7.07
2022-06-17T02:07:00,thc,7.09
2022-06-17T02:08:00,thc,7.09
2022-06-17T02:09:00,thc,7.08
2022-06-17T02:10:00,thc,7.10
2022-06-17T02:11:00,thc,7.10
2022-06-17T02:12:00,thc,7.10
2022-06-17T02:13:00,thc,7.08
2022-06-17T02:14:00,thc,7.08
2022-06-17T02:15:00,thc,7.08
2022-06-17T02:16:00,thc,7.09
2022-06-17T02:17:00,thc,7.08
2022-06-17T02:18:00,thc,7.28
2022-06-17T02:19:00,thc,6.98
2022-06-17T02:20:00,thc,9.20
2022-06-17T02:21:00,thc,9.14
2022-06-17T02:22:00,thc,9.15
2022-06-17T02:23:00,thc,9.12
2022-06-17T02:24:00,thc,9.12
2022-06-17T02:25:00,thc,7.11
2022-06-17T02:26:00,thc,7.10
2022-06-17T02:27:00,thc,7.08
2022-06-17T02:28:00,thc,7.10
2022-06-17T02:29:00,thc,7.09
2022-06-17T02:30:00,thc,7.08
2022-06-17T02:31:00,thc,7.09
2022-06-17T02:32:00,thc,7.09
2022-06-17T02:33:00,thc,7.10
2022-06-17T02:34:00,thc,7.10
2022-06-17T02:35:00,thc,6.96
2022-06-17T02:36:00,thc,6.97
2022-06-17T02:37:00,thc,7.10
2022-06-17T02:38:00,thc,7.27
2022-06-17T02:39:00,thc,7.28
2022-06-17T02:40:00,thc,7.29
2022-06-17T02:41:00,thc,7.30
2022-06-17T02:42:00,thc,7.27
2022-06-17T02:43:00,thc,7.29
2022-06-17T02:44:00,thc,7.30
2022-06-17T02:45:00,thc,7.09
2022-06-17T02:46:00,thc,9.10
2022-06-17T02:47:00,thc,9.07
2022-06-17T02:48:00,thc,9.11
2022-06-17T02:49:00,thc,8.99
2022-06-17T02:50:00,thc,9.00
2022-06-17T02:51:00,thc,8.99
2022-06-17T02:52:00,thc,8.99
2022-06-17T02:53:00,thc,6.99
2022-06-17T02:54:00,thc,6.97
2022-06-17T02:55:00,thc,6.99
2022-06-17T02:56:00,thc,6.99
2022-06-17T02:57:00,thc,6.97
2022-06-17T02:58:00,thc,7.17
2022-06-17T02:59:00,thc,7.19
2022-06-17T03:00:00,thc,6.97
2022-06-17T03:01:00,thc,6.96
2022-06-17T03:02:00,thc,7.10
2022-06-17T03:03:00,thc,9.02
2022-06-17T03:04:00,thc,9.30
2022-06-17T03:05:00,thc,9.51
2022-06-17T03:06:00,thc,9.48
2022-06-17T03:07:00,thc,7.51
2022-06-17T03:08:00,thc,7.50
2022-06-17T03:09:00,thc,7.30
2022-06-17T03:10:00,thc,7.11
2022-06-17T03:11:00,thc,7.11
2022-06-17T03:12:00,thc,9.54
2022-06-17T03:13:00,thc,9.51
2022-06-17T03:14:00,thc,9.48
2022-06-17T03:15:00,thc,12.00
2022-06-17T03:16:00,thc,11.54
2022-06-17T03:17:00,thc,11.48
2022-06-17T03:18:00,thc,11.44
2022-06-17T03:19:00,thc,11.42
2022-06-17T03:20:00,thc,11.43
2022-06-17T03:21:00,thc,6.99
2022-06-17T03:22:00,thc,7.11
2022-06-17T03:23:00,thc,7.00
2022-06-17T03:24:00,thc,7.00
2022-06-17T03:25:00,thc,7.03
2022-06-17T03:26:00,thc,7.27
2022-06-17T03:27:00,thc,7.05
2022-06-17T03:28:00,thc,7.05
2022-06-17T03:29:00,thc,7.07
2022-06-17T03:30:00,thc,7.08
2022-06-17T03:31:00,thc,7.48
2022-06-17T03:32:00,thc,7.35
2022-06-17T03:33:00,thc,7.33
2022-06-17T03:34:00,thc,7.33
2022-06-17T03:35:00,thc,7.31
2022-06-17T03:36:00,thc,7.11
2022-06-17T03:37:00,thc,7.10
2022-06-17T03:38:00,thc,7.08
2022-06-17T03:39:00,thc,7.29
2022-06-17T03:40:00,thc,7.08
2022-06-17T03:41:00,thc,7.07
2022-06-17T03:42:00,thc,7.06
2022-06-17T03:43:00,thc,7.09
2022-06-17T03:44:00,thc,7.09
2022-06-17T03:45:00,thc,9.20
2022-06-17T03:46:00,thc,9.21
2022-06-17T03:47:00,thc,9.19
2022-06-17T03:48:00,thc,9.90
2022-06-17T03:49:00,thc,9.26
2022-06-17T03:50:00,thc,7.30
2022-06-17T03:51:00,thc,7.31
2022-06-17T03:52:00,thc,7.33
2022-06-17T03:53:00,thc,7.32
2022-06-17T03:54:00,thc,7.42
2022-06-17T03:55:00,thc,7.31
2022-06-17T03:56:00,thc,7.29
2022-06-17T03:57:00,thc,7.28
2022-06-17T03:58:00,thc,7.26
2022-06-17T03:59:00,thc,7.24
2022-06-17T04:00:00,thc,7.16
2022-06-17T04:01:00,thc,7.20
2022-06-17T04:02:00,thc,7.22
2022-06-17T04:03:00,thc,7.19
2022-06-17T04:04:00,thc,7.19
2022-06-17T04:05:00,thc,7.18
2022-06-17T04:06:00,thc,7.39
2022-06-17T04:07:00,thc,7.50
2022-06-17T04:08:00,thc,7.36
2022-06-17T04:09:00,thc,7.30
2022-06-17T04:10:00,thc,7.37
2022-06-17T04:11:00,thc,7.37
2022-06-17T04:12:00,thc,7.35
2022-06-17T04:13:00,thc,7.24
2022-06-17T04:14:00,thc,7.23
2022-06-17T04:15:00,thc,7.26
2022-06-17T04:16:00,thc,7.26
2022-06-17T04:17:00,thc,7.25
2022-06-17T04:18:00,thc,7.26
2022-06-17T04:19:00,thc,7.46
2022-06-17T04:20:00,thc,9.18
2022-06-17T04:21:00,thc,9.32
2022-06-17T04:22:00,thc,9.15
2022-06-17T04:23:00,thc,9.21
2022-06-17T04:24:00,thc,9.13
2022-06-17T04:25:00,thc,7.09
2022-06-17T04:26:00,thc,7.09
2022-06-17T04:27:00,thc,7.08
2022-06-17T04:28:00,thc,7.01
2022-06-17T04:29:00,thc,6.96
2022-06-17T04:30:00,thc,6.96
2022-06-17T04:31:00,thc,6.96
2022-06-17T04:32:00,thc,6.95
2022-06-17T04:33:00,thc,6.95
2022-06-17T04:34:00,thc,6.92
2022-06-17T04:35:00,thc,9.40
2022-06-17T04:36:00,thc,9.39
2022-06-17T04:37:00,thc,9.39
2022-06-17T04:38:00,thc,11.44
2022-06-17T04:39:00,thc,11.37
2022-06-17T04:40:00,thc,8.93
2022-06-17T04:41:00,thc,8.91
2022-06-17T04:42:00,thc,8.88
2022-06-17T04:43:00,thc,6.83
2022-06-17T04:44:00,thc,6.82
2022-06-17T04:45:00,thc,6.83
2022-06-17T04:46:00,thc,6.95
2022-06-17T04:47:00,thc,7.13
2022-06-17T04:48:00,thc,6.92
2022-06-17T04:49:00,thc,6.92
2022-06-17T04:50:00,thc,6.92
2022-06-17T04:51:00,thc,6.91
2022-06-17T04:52:00,thc,6.91
2022-06-17T04:53:00,thc,6.90
2022-06-17T04:54:00,thc,6.90
2022-06-17T04:55:00,thc,6.90
2022-06-17T04:56:00,thc,6.92
2022-06-17T04:57:00,thc,6.90
2022-06-17T04:58:00,thc,7.01
2022-06-17T04:59:00,thc,7.25
2022-06-17T05:00:00,thc,7.23
2022-06-17T05:01:00,thc,7.00
2022-06-17T05:02:00,thc,7.00
2022-06-17T05:03:00,thc,6.98
2022-06-17T05:04:00,thc,7.00
2022-06-17T05:05:00,thc,6.99
2022-06-17T05:06:00,thc,7.02
2022-06-17T05:07:00,thc,7.02
2022-06-17T05:08:00,thc,7.00
2022-06-17T05:09:00,thc,7.13
2022-06-17T05:10:00,thc,7.09
2022-06-17T05:11:00,thc,7.11
2022-06-17T05:12:00,thc,7.34
2022-06-17T05:13:00,thc,7.25
2022-06-17T05:14:00,thc,7.24
2022-06-17T05:15:00,thc,7.24
2022-06-17T05:16:00,thc,7.22
2022-06-17T05:17:00,thc,7.22
2022-06-17T05:18:00,thc,7.22
2022-06-17T05:19:00,thc,7.23
2022-06-17T05:20:00,thc,7.20
2022-06-17T05:21:00,thc,7.09
2022-06-17T05:22:00,thc,7.09
2022-06-17T05:23:00,thc,7.08
2022-06-17T05:24:00,thc,7.08
2022-06-17T05:25:00,thc,7.08
2022-06-17T05:26:00,thc,7.12
2022-06-17T05:27:00,thc,7.30
2022-06-17T05:28:00,thc,7.07
2022-06-17T05:29:00,thc,7.11
2022-06-17T05:30:00,thc,7.08
2022-06-17T05:31:00,thc,7.09
2022-06-17T05:32:00,thc,7.09
2022-06-17T05:33:00,thc,7.09
2022-06-17T05:34:00,thc,6.89
2022-06-17T05:35:00,thc,6.88
2022-06-17T05:36:00,thc,6.78
2022-06-17T05:37:00,thc,6.78
2022-06-17T05:38:00,thc,6.78
2022-06-17T05:39:00,thc,6.79
2022-06-17T05:40:00,thc,6.99
2022-06-17T05:41:00,thc,6.98
2022-06-17T05:42:00,thc,6.80
2022-06-17T05:43:00,thc,6.76
2022-06-17T05:44:00,thc,6.78
2022-06-17T05:45:00,thc,6.78
2022-06-17T05:46:00,thc,6.78
2022-06-17T05:47:00,thc,6.78
2022-06-17T05:48:00,thc,6.78
2022-06-17T05:49:00,thc,6.78
2022-06-17T05:50:00,thc,6.78
2022-06-17T05:51:00,thc,6.78
2022-06-17T05:52:00,thc,6.79
2022-06-17T05:53:00,thc,6.78
2022-06-17T05:54:00,thc,6.78
2022-06-17T05:55:00,thc,6.77
2022-06-17T05:56:00,thc,6.76
2022-06-17T05:57:00,thc,6.79
2022-06-17T05:58:00,thc,6.76
2022-06-17T05:59:00,thc,9.05
2022-06-17T06:00:00,thc,9.03
2022-06-17T06:01:00,thc,10.90
2022-06-17T06:02:00,thc,10.85
2022-06-17T06:03:00,thc,10.82
2022-06-17T06:04:00,thc,8.79
2022-06-17T06:05:00,thc,9.66
2022-06-17T06:06:00,thc,8.93
2022-06-17T06:07:00,thc,10.08
2022-06-17T06:08:00,thc,8.82
2022-06-17T06:09:00,thc,6.55
2022-06-17T06:10:00,thc,6.54
2022-06-17T06:11:00,thc,6.54
2022-06-17T06:12:00,thc,6.54
2022-06-17T06:13:00,thc,6.56
2022-06-17T06:14:00,thc,6.53
2022-06-17T06:15:00,thc,6.53
2022-06-17T06:16:00,thc,6.54
2022-06-17T06:17:00,thc,7.37
2022-06-17T06:18:00,thc,6.67
2022-06-17T06:19:00,thc,6.63
2022-06-17T06:20:00,thc,6.63
2022-06-17T06:21:00,thc,6.83
2022-06-17T06:22:00,thc,6.63
2022-06-17T06:23:00,thc,6.63
2022-06-17T06:24:00,thc,6.63
2022-06-17T06:25:00,thc,6.62
2022-06-17T06:26:00,thc,9.09
2022-06-17T06:27:00,thc,9.13
2022-06-17T06:28:00,thc,9.10
2022-06-17T06:29:00,thc,9.09
2022-06-17T06:30:00,thc,9.10
2022-06-17T06:31:00,thc,6.61
2022-06-17T06:32:00,thc,6.61
2022-06-17T06:33:00,thc,6.76
2022-06-17T06:34:00,thc,6.75
2022-06-17T06:35:00,thc,6.77
2022-06-17T06:36:00,thc,6.76
2022-06-17T06:37:00,thc,6.82
2022-06-17T06:38:00,thc,6.71
2022-06-17T06:39:00,thc,6.71
2022-06-17T06:40:00,thc,6.67
2022-06-17T06:41:00,thc,6.67
2022-06-17T06:42:00,thc,6.54
2022-06-17T06:43:00,thc,6.43
2022-06-17T06:44:00,thc,6.44
2022-06-17T06:45:00,thc,6.38
2022-06-17T06:46:00,thc,6.37
2022-06-17T06:47:00,thc,6.39
2022-06-17T06:48:00,thc,6.54
2022-06-17T06:49:00,thc,6.34
2022-06-17T06:50:00,thc,6.37
2022-06-17T06:51:00,thc,6.32
2022-06-17T06:52:00,thc,6.28
2022-06-17T06:53:00,thc,6.26
2022-06-17T06:54:00,thc,6.28
2022-06-17T06:55:00,thc,6.27
2022-06-17T06:56:00,thc,6.28
2022-06-17T06:57:00,thc,6.31
2022-06-17T06:58:00,thc,6.24
2022-06-17T06:59:00,thc,6.25
2022-06-17T07:00:00,thc,6.25
2022-06-17T07:01:00,thc,6.43
2022-06-17T07:02:00,thc,6.35
2022-06-17T07:03:00,thc,6.18
2022-06-17T07:04:00,thc,6.13
2022-06-17T07:05:00,thc,6.12
2022-06-17T07:06:00,thc,6.13
2022-06-17T07:07:00,thc,6.14
2022-06-17T07:08:00,thc,6.13
2022-06-17T07:09:00,thc,6.17
2022-06-17T07:10:00,thc,6.12
2022-06-17T07:11:00,thc,6.13
2022-06-17T07:12:00,thc,6.12
2022-06-17T07:13:00,thc,6.12
2022-06-17T07:14:00,thc,6.12
2022-06-17T07:15:00,thc,6.13
2022-06-17T07:16:00,thc,6.10
2022-06-17T07:17:00,thc,6.12
2022-06-17T07:18:00,thc,6.25
2022-06-17T07:19:00,thc,6.22
2022-06-17T07:20:00,thc,6.24
2022-06-17T07:21:00,thc,6.24
2022-06-17T07:22:00,thc,8.58
2022-06-17T07:23:00,thc,8.46
2022-06-17T07:24:00,thc,8.46
2022-06-17T07:25:00,thc,8.43
2022-06-17T07:26:00,thc,8.43
2022-06-17T07:27:00,thc,6.36
2022-06-17T07:28:00,thc,6.37
2022-06-17T07:29:00,thc,6.48
2022-06-17T07:30:00,thc,6.48
2022-06-17T07:31:00,thc,6.49
2022-06-17T07:32:00,thc,6.48
2022-06-17T07:33:00,thc,6.49
2022-06-17T07:34:00,thc,6.48
2022-06-17T07:35:00,thc,9.05
2022-06-17T07:36:00,thc,9.04
2022-06-17T07:37:00,thc,11.04
2022-06-17T07:38:00,thc,11.10
2022-06-17T07:39:00,thc,11.10
2022-06-17T07:40:00,thc,8.55
2022-06-17T07:41:00,thc,8.55
2022-06-17T07:42:00,thc,6.68
2022-06-17T07:43:00,thc,6.37
2022-06-17T07:44:00,thc,6.38
2022-06-17T07:45:00,thc,6.37
2022-06-17T07:46:00,thc,6.38
2022-06-17T07:47:00,thc,6.40
2022-06-17T07:48:00,thc,6.41
2022-06-17T07:49:00,thc,6.39
2022-06-17T07:50:00,thc,6.46
2022-06-17T07:51:00,thc,6.46
2022-06-17T07:52:00,thc,6.45
2022-06-17T07:53:00,thc,6.48
2022-06-17T07:54:00,thc,6.48
2022-06-17T07:55:00,thc,6.47
2022-06-17T07:56:00,thc,6.36
2022-06-17T07:57:00,thc,6.34
2022-06-17T07:58:00,thc,6.52
2022-06-17T07:59:00,thc,6.52
2022-06-17T08:00:00,thc,6.52
2022-06-17T08:01:00,thc,6.55
2022-06-17T08:02:00,thc,8.58
2022-06-17T08:03:00,thc,8.57
2022-06-17T08:04:00,thc,8.50
2022-06-17T08:05:00,thc,8.46
2022-06-17T08:06:00,thc,8.46
2022-06-17T08:07:00,thc,7.63
2022-06-17T08:08:00,thc,6.41
2022-06-17T08:09:00,thc,6.41
2022-06-17T08:10:00,thc,6.64
2022-06-17T08:11:00,thc,6.47
2022-06-17T08:12:00,thc,6.43
2022-06-17T08:13:00,thc,6.43
2022-06-17T08:14:00,thc,6.50
2022-06-17T08:15:00,thc,6.61
2022-06-17T08:16:00,thc,6.60
2022-06-17T08:17:00,thc,8.80
2022-06-17T08:18:00,thc,8.94
2022-06-17T08:19:00,thc,8.94
2022-06-17T08:20:00,thc,8.84
2022-06-17T08:21:00,thc,11.43
2022-06-17T08:22:00,thc,11.70
2022-06-17T08:23:00,thc,9.33
2022-06-17T08:24:00,thc,9.33
2022-06-17T08:25:00,thc,9.29
2022-06-17T08:26:00,thc,6.59
2022-06-17T08:27:00,thc,6.72
2022-06-17T08:28:00,thc,6.69
2022-06-17T08:29:00,thc,6.69
2022-06-17T08:30:00,thc,6.69
2022-06-17T08:31:00,thc,7.31
2022-06-17T08:32:00,thc,7.30
2022-06-17T08:33:00,thc,7.29
2022-06-17T08:34:00,thc,7.31
2022-06-17T08:35:00,thc,7.31
2022-06-17T08:36:00,thc,7.32
2022-06-17T08:37:00,thc,7.32
2022-06-17T08:38:00,thc,7.34
2022-06-17T08:39:00,thc,7.32
2022-06-17T08:40:00,thc,7.31
2022-06-17T08:41:00,thc,7.31
2022-06-17T08:42:00,thc,7.33
2022-06-17T08:43:00,thc,7.41
2022-06-17T08:44:00,thc,7.55
2022-06-17T08:45:00,thc,7.55
2022-06-17T08:46:00,thc,7.55
2022-06-17T08:47:00,thc,7.55
2022-06-17T08:48:00,thc,7.44
2022-06-17T08:49:00,thc,7.42
2022-06-17T08:50:00,thc,7.44
2022-06-17T08:51:00,thc,7.61
2022-06-17T08:52:00,thc,7.61
2022-06-17T08:53:00,thc,7.56
2022-06-17T08:54:00,thc,7.51
2022-06-17T08:55:00,thc,9.59
2022-06-17T08:56:00,thc,9.65
2022-06-17T08:57:00,thc,9.65
2022-06-17T08:58:00,thc,9.65
2022-06-17T08:59:00,thc,9.66
2022-06-17T09:00:00,thc,7.48
2022-06-17T09:01:00,thc,7.46
2022-06-17T09:02:00,thc,9.79
2022-06-17T09:03:00,thc,9.79
2022-06-17T09:04:00,thc,9.85
2022-06-17T09:05:00,thc,9.65
2022-06-17T09:06:00,thc,9.60
2022-06-17T09:07:00,thc,9.53
2022-06-17T09:08:00,thc,9.59
2022-06-17T09:09:00,thc,9.59
2022-06-17T09:10:00,thc,11.60
2022-06-17T09:11:00,thc,13.28
2022-06-17T09:12:00,thc,13.21
2022-06-17T09:13:00,thc,17.95
2022-06-17T09:14:00,thc,17.95
2022-06-17T09:15:00,thc,15.87
2022-06-17T09:16:00,thc,12.42
2022-06-17T09:17:00,thc,12.33
2022-06-17T09:18:00,thc,7.67
2022-06-17T09:19:00,thc,7.60
2022-06-17T09:20:00,thc,7.60
2022-06-17T09:21:00,thc,7.62
2022-06-17T09:22:00,thc,7.55
2022-06-17T09:23:00,thc,7.54
2022-06-17T09:24:00,thc,7.54
2022-06-17T09:25:00,thc,7.54
2022-06-17T09:26:00,thc,7.55
2022-06-17T09:27:00,thc,7.50
2022-06-17T09:28:00,thc,7.47
2022-06-17T09:29:00,thc,7.43
2022-06-17T09:30:00,thc,7.73
2022-06-17T09:31:00,thc,7.73
2022-06-17T09:32:00,thc,7.63
2022-06-17T09:33:00,thc,7.61
2022-06-17T09:34:00,thc,7.61
2022-06-17T09:35:00,thc,7.61
2022-06-17T09:36:00,thc,7.61
2022-06-17T09:37:00,thc,7.59
2022-06-17T09:38:00,thc,7.60
2022-06-17T09:39:00,thc,7.69
2022-06-17T09:40:00,thc,7.65
2022-06-17T09:41:00,thc,7.64
2022-06-17T09:42:00,thc,7.64
2022-06-17T09:43:00,thc,7.86
2022-06-17T09:44:00,thc,7.63
2022-06-17T09:45:00,thc,7.62
2022-06-17T09:46:00,thc,7.62
2022-06-17T09:47:00,thc,7.64
2022-06-17T09:48:00,thc,7.52
2022-06-17T09:49:00,thc,7.50
2022-06-17T09:50:00,thc,7.49
2022-06-17T09:51:00,thc,7.54
2022-06-17T09:52:00,thc,7.44
2022-06-17T09:53:00,thc,7.44
2022-06-17T09:54:00,thc,7.53
2022-06-17T09:55:00,thc,7.53
2022-06-17T09:56:00,thc,7.15
2022-06-17T09:57:00,thc,7.59
2022-06-17T09:58:00,thc,7.59
2022-06-17T09:59:00,thc,9.91
2022-06-17T10:00:00,thc,9.85
2022-06-17T10:01:00,thc,9.74
2022-06-17T10:02:00,thc,9.70
2022-06-17T10:03:00,thc,9.71
2022-06-17T10:04:00,thc,11.98
2022-06-17T10:05:00,thc,9.69
2022-06-17T10:06:00,thc,9.75
2022-06-17T10:07:00,thc,9.76
2022-06-17T10:08:00,thc,9.77
2022-06-17T10:09:00,thc,7.60
2022-06-17T10:10:00,thc,7.60
2022-06-17T10:11:00,thc,7.83
2022-06-17T10:12:00,thc,7.60
2022-06-17T10:13:00,thc,8.63
2022-06-17T10:14:00,thc,8.76
2022-06-17T10:15:00,thc,11.10
2022-06-17T10:16:00,thc,11.01
2022-06-17T10:17:00,thc,11.01
2022-06-17T10:18:00,thc,11.03
2022-06-17T10:19:00,thc,13.18
2022-06-17T10:20:00,thc,12.22
2022-06-17T10:21:00,thc,12.20
2022-06-17T10:22:00,thc,12.17
2022-06-17T10:23:00,thc,15.94
2022-06-17T10:24:00,thc,12.83
2022-06-17T10:25:00,thc,13.63
2022-06-17T10:26:00,thc,13.63
2022-06-17T10:27:00,thc,12.54
2022-06-17T10:28:00,thc,11.32
2022-06-17T10:29:00,thc,8.53
2022-06-17T10:30:00,thc,8.52
2022-06-17T10:31:00,thc,8.51
2022-06-17T10:32:00,thc,8.65
2022-06-17T10:33:00,thc,7.62
2022-06-17T10:34:00,thc,13.23
2022-06-17T10:35:00,thc,11.48
2022-06-17T10:36:00,thc,11.44
2022-06-17T10:37:00,thc,11.43
2022-06-17T10:38:00,thc,14.93
2022-06-17T10:39:00,thc,14.74
2022-06-17T10:40:00,thc,11.95
2022-06-17T10:41:00,thc,11.01
2022-06-17T10:42:00,thc,11.00
2022-06-17T10:43:00,thc,11.05
2022-06-17T10:44:00,thc,8.73
2022-06-17T10:45:00,thc,9.02
2022-06-17T10:46:00,thc,11.61
2022-06-17T10:47:00,thc,11.57
2022-06-17T10:48:00,thc,11.66
2022-06-17T10:49:00,thc,11.63
2022-06-17T10:50:00,thc,13.81
2022-06-17T10:51:00,thc,10.20
2022-06-17T10:52:00,thc,10.17
2022-06-17T10:53:00,thc,12.25
2022-06-17T10:54:00,thc,13.36
2022-06-17T10:55:00,thc,13.35
2022-06-17T10:56:00,thc,13.28
2022-06-17T10:57:00,thc,13.24
2022-06-17T10:58:00,thc,8.91
2022-06-17T10:59:00,thc,8.91
2022-06-17T11:00:00,thc,7.86
2022-06-17T11:01:00,thc,7.88
2022-06-17T11:02:00,thc,7.85
2022-06-17T11:03:00,thc,10.48
2022-06-17T11:04:00,thc,10.75
2022-06-17T11:05:00,thc,10.69
2022-06-17T11:06:00,thc,10.43
2022-06-17T11:07:00,thc,10.31
2022-06-17T11:08:00,thc,10.30
2022-06-17T11:09:00,thc,10.31
2022-06-17T11:10:00,thc,10.30
2022-06-17T11:11:00,thc,10.26
2022-06-17T11:12:00,thc,10.27
2022-06-17T11:13:00,thc,8.77
2022-06-17T11:14:00,thc,8.12
2022-06-17T11:15:00,thc,8.11
2022-06-17T11:16:00,thc,8.16
2022-06-17T11:17:00,thc,8.15
2022-06-17T11:18:00,thc,11.15
2022-06-17T11:19:00,thc,9.89
2022-06-17T11:20:00,thc,9.83
2022-06-17T11:21:00,thc,9.78
2022-06-17T11:22:00,thc,10.84
2022-06-17T11:23:00,thc,10.88
2022-06-17T11:24:00,thc,10.90
2022-06-17T11:25:00,thc,8.40
2022-06-17T11:26:00,thc,8.41
2022-06-17T11:27:00,thc,8.42
2022-06-17T11:28:00,thc,8.41
2022-06-17T11:29:00,thc,8.34
2022-06-17T11:30:00,thc,8.38
2022-06-17T11:31:00,thc,8.38
2022-06-17T11:32:00,thc,7.31
2022-06-17T11:33:00,thc,8.33
2022-06-17T11:34:00,thc,8.36
2022-06-17T11:35:00,thc,8.35
2022-06-17T11:36:00,thc,8.51
2022-06-17T11:37:00,thc,11.26
2022-06-17T11:38:00,thc,11.32
2022-06-17T11:39:00,thc,11.27
2022-06-17T11:40:00,thc,10.28
2022-06-17T11:41:00,thc,10.31
2022-06-17T11:42:00,thc,10.33
2022-06-17T11:43:00,thc,10.31
2022-06-17T11:44:00,thc,7.78
2022-06-17T11:45:00,thc,7.77
2022-06-17T11:46:00,thc,7.53
2022-06-17T11:47:00,thc,7.52
2022-06-17T11:48:00,thc,7.52
2022-06-17T11:49:00,thc,7.52
2022-06-17T11:50:00,thc,7.69
2022-06-17T11:51:00,thc,9.95
2022-06-17T11:52:00,thc,9.97
2022-06-17T11:53:00,thc,9.96
2022-06-17T11:54:00,thc,9.94
2022-06-17T11:55:00,thc,9.97
2022-06-17T11:56:00,thc,9.95
2022-06-17T11:57:00,thc,7.68
2022-06-17T11:58:00,thc,10.49
2022-06-17T11:59:00,thc,10.52
2022-06-17T12:00:00,thc,15.50
2022-06-17T12:01:00,thc,15.11
2022-06-17T12:02:00,thc,15.02
2022-06-17T12:03:00,thc,15.03
2022-06-17T12:04:00,thc,12.19
2022-06-17T12:05:00,thc,12.19
2022-06-17T12:06:00,thc,7.67
2022-06-17T12:07:00,thc,10.01
2022-06-17T12:08:00,thc,9.96
2022-06-17T12:09:00,thc,9.97
2022-06-17T12:10:00,thc,9.96
2022-06-17T12:11:00,thc,13.80
2022-06-17T12:12:00,thc,13.79
2022-06-17T12:13:00,thc,11.30
2022-06-17T12:14:00,thc,11.28
2022-06-17T12:15:00,thc,11.24
2022-06-17T12:16:00,thc,8.46
2022-06-17T12:17:00,thc,7.53
2022-06-17T12:18:00,thc,7.53
2022-06-17T12:19:00,thc,7.53
2022-06-17T12:20:00,thc,7.52
2022-06-17T12:21:00,thc,7.41
2022-06-17T12:22:00,thc,7.42
2022-06-17T12:23:00,thc,7.43
2022-06-17T12:24:00,thc,7.44
2022-06-17T12:25:00,thc,7.64
2022-06-17T12:26:00,thc,7.43
2022-06-17T12:27:00,thc,7.42
2022-06-17T12:28:00,thc,7.42
2022-06-17T12:29:00,thc,7.42
2022-06-17T12:30:00,thc,7.42
2022-06-17T12:31:00,thc,7.43
2022-06-17T12:32:00,thc,7.42
2022-06-17T12:33:00,thc,10.37
2022-06-17T12:34:00,thc,10.33
2022-06-17T12:35:00,thc,10.30
2022-06-17T12:36:00,thc,10.32
2022-06-17T12:37:00,thc,10.33
2022-06-17T12:38:00,thc,10.20
2022-06-17T12:39:00,thc,15.14
2022-06-17T12:40:00,thc,12.01
2022-06-17T12:41:00,thc,12.09
2022-06-17T12:42:00,thc,12.07
2022-06-17T12:43:00,thc,12.15
2022-06-17T12:44:00,thc,12.10
2022-06-17T12:45:00,thc,9.70
2022-06-17T12:46:00,thc,7.32
2022-06-17T12:47:00,thc,8.49
2022-06-17T12:48:00,thc,10.75
2022-06-17T12:49:00,thc,10.81
2022-06-17T12:50:00,thc,9.74
2022-06-17T12:51:00,thc,9.74
2022-06-17T12:52:00,thc,10.02
2022-06-17T12:53:00,thc,9.97
2022-06-17T12:54:00,thc,7.48
2022-06-17T12:55:00,thc,7.52
2022-06-17T12:56:00,thc,7.51
2022-06-17T12:57:00,thc,7.64
2022-06-17T12:58:00,thc,7.59
2022-06-17T12:59:00,thc,10.42
2022-06-17T13:00:00,thc,10.50
2022-06-17T13:01:00,thc,13.45
2022-06-17T13:02:00,thc,13.44
2022-06-17T13:03:00,thc,13.42
2022-06-17T13:04:00,thc,13.39
2022-06-17T13:05:00,thc,15.68
2022-06-17T13:06:00,thc,10.19
2022-06-17T13:07:00,thc,10.00
2022-06-17T13:08:00,thc,12.23
2022-06-17T13:09:00,thc,12.32
2022-06-17T13:10:00,thc,14.79
2022-06-17T13:11:00,thc,14.91
2022-06-17T13:12:00,thc,12.42
2022-06-17T13:13:00,thc,12.43
2022-06-17T13:14:00,thc,10.10
2022-06-17T13:15:00,thc,10.10
2022-06-17T13:16:00,thc,10.13
2022-06-17T13:17:00,thc,7.58
2022-06-17T13:18:00,thc,7.58
2022-06-17T13:19:00,thc,7.57
2022-06-17T13:20:00,thc,7.57
2022-06-17T13:21:00,thc,7.58
2022-06-17T13:22:00,thc,7.56
2022-06-17T13:23:00,thc,10.46
2022-06-17T13:24:00,thc,10.51
2022-06-17T13:25:00,thc,10.52
2022-06-17T13:26:00,thc,10.46
2022-06-17T13:27:00,thc,10.47
2022-06-17T13:28:00,thc,10.54
2022-06-17T13:29:00,thc,10.48
2022-06-17T13:30:00,thc,10.50
2022-06-17T13:31:00,thc,12.82
2022-06-17T13:32:00,thc,12.75
2022-06-17T13:33:00,thc,9.95
2022-06-17T13:34:00,thc,13.14
2022-06-17T13:35:00,thc,13.39
2022-06-17T13:36:00,thc,10.83
2022-06-17T13:37:00,thc,10.75
2022-06-17T13:38:00,thc,13.20
2022-06-17T13:39:00,thc,13.20
2022-06-17T13:40:00,thc,13.17